Other Public Products
Issued by NWS Charleston, SC

Home | Current Version | Previous Version | Text Only | Print | Product List | Glossary On
Versions: 1 2 3 4 5 6 7 8 9 10 11 12 13 14 15 16 17 18 19 20 21 22 23 24 25 26 27 28 29 30 31 32 33 34 35 36 37 38 39 40 41 42 43 44 45 46 47 48 49 50
000
FPUS82 KCHS 171412
OPUCHS

TEST...KCHS/KSAV Gateway Observations...TEST
National Weather Service Charleston SC
900 AM EST SUN DEC 17 2017

NOTE: "fair" indicates few or no clouds below 12,000 feet with no
significant weather and/or obstructions to visibility.

SCZ050-WAZ558-NCZ071-TXZ119-213-PAZ071-DCZ001-FLZ074-172-MI076-
NYZ176-178-MAZ016-IL014-TNZ027-NJZ106-GAZ044-MD014-171500-

...Gateway Observations for Charleston International...

CITY           SKY/WX    TMP DP  RH WIND       PRES   REMARKS
Chas Airport   PTSUNNY   41  40  96 CALM      30.32R FOG
Seattle        LGT RAIN  43  42  97 S5        30.15S
Charlotte      PTSUNNY   36  30  79 S3        30.28R
Dallas DFW     DRIZZLE   46  44  93 S6        30.06R FOG
Dallas Love    DRIZZLE   45  44  97 S8        30.08R FOG
Philladelphia  PTSUNNY   35  26  69 E6        30.29R WCI  30
Wash National  PTSUNNY   36  31  82 S3        30.28S
Baltimore      CLOUDY    36  28  73 CALM      30.26R
Miami          PTSUNNY   77  66  68 E13       30.23R
Detroit        CLOUDY    31  26  82 NE5       30.20R WCI  26
Newark         CLOUDY    34  22  61 CALM      30.30R
Laguardia      CLOUDY    34  21  59 NE5       30.29S WCI  30
J F K          PTSUNNY   33  24  69 E5        30.31R WCI  29
Boston Logan   MOSUNNY   22   6  50 W12       30.28R WCI  10
Ft. Lauderdale PTSUNNY   76  70  82 E14       30.22R
Chicago O`Hare CLOUDY    36  33  89 NE6       30.06R FOG     WCI  31
Chicago Midway CLOUDY    36  33  89 CALM      30.06S
Houston Bush   CLOUDY    50  48  93 NW6       30.09S VSB 1/2
Houston Hobby  FOG       49  49 100 CALM      30.09R VSB 1/2
Nashville      RAIN      40  37  89 SE5       30.23R FOG     WCI  37
Atlanta        CLOUDY    41  30  65 SE7       30.22F

$$

GAZ044-118-TXZ119-213-NCZ071-DCZ001-MDZ014-506-PAZ021-071-NJZ106-
NYZ176-178-MAZ106-OHZ011-021-055-MIZ076-KYZ091-ILZ014-INZ047-
MNZ060-ONZ431-171500-

...Gateway Observations for Savannah International...

CITY           SKY/WX    TMP DP  RH WIND       PRES   REMARKS
Savannah Arpt  PTSUNNY   43  41  93 CALM      30.33R FOG
Atlanta        CLOUDY    41  30  65 SE7       30.22F
Charlotte      PTSUNNY   36  30  79 S3        30.28R
Dallas DFW     DRIZZLE   46  44  93 S6        30.06R FOG
Houston Bush   CLOUDY    50  48  93 NW6       30.09S VSB 1/2
Wash National  PTSUNNY   36  31  82 S3        30.28S
Wash Dulles    CLOUDY    32  27  81 CALM      30.27R
Baltimore      CLOUDY    36  28  73 CALM      30.26R
Philadelphia   PTSUNNY   35  26  69 E6        30.29R WCI  30
Newark         CLOUDY    34  22  61 CALM      30.30R
Laguardia      CLOUDY    34  21  59 NE5       30.29S WCI  30
J F K          PTSUNNY   33  24  69 E5        30.31R WCI  29
Boston         MOSUNNY   22   6  50 W12       30.28R WCI  10
Pittsburg      CLOUDY    34  28  79 CALM      30.18S
Akron          CLOUDY    31  26  82 S5        30.17R WCI  26
Cleveland      CLOUDY    27  25  92 S5        30.20R FOG     WCI  22
Cincinnati     CLOUDY    39  31  72 S8        30.18S WCI  33
Columbus       CLOUDY    35  30  80 S6        30.21R WCI  30
Detroit        CLOUDY    31  26  82 NE5       30.20R WCI  26
Chicago O`Hare CLOUDY    36  33  89 NE6       30.06R FOG     WCI  31
Minneapolis    CLOUDY    23  22  96 NE3       30.09F FOG
Indianapolis   CLOUDY    39  30  70 SE6       30.12F WCI  35
Toronto Canada MOCLDY    10   3  72 N6        30.31S WCI   1

$$




USA.gov is the U.S. government's official web portal to all federal, state and local government web resources and services.